Time,TemperatureF,DewpointF,PressureIn,WindDirection,WindDirectionDegrees,WindSpeedMPH,WindSpeedGustMPH,Humidity,HourlyPrecipIn,Conditions,Clouds,dailyrainin,SoftwareType,DateUTC
2013-05-05 00:01:00,53.0,48.0,29.65,West,272,4.0,13.0,82,0.00,,,0.00,,2013-05-05 07:01:00,
2013-05-05 00:11:00,53.0,48.0,29.65,West,272,4.0,13.0,82,0.00,,,0.00,,2013-05-05 07:11:00,
2013-05-05 00:21:00,54.0,48.0,29.65,SSW,210,7.0,21.0,81,0.00,,,0.00,,2013-05-05 07:21:00,
2013-05-05 00:31:00,54.0,49.0,29.65,SSW,202,8.0,18.0,82,0.00,,,0.00,,2013-05-05 07:31:00,
2013-05-05 00:42:00,54.0,49.0,29.65,SSW,202,8.0,18.0,82,0.00,,,0.00,,2013-05-05 07:42:00,
2013-05-05 00:52:00,54.0,49.0,29.65,SW,219,2.0,15.0,82,0.00,,,0.00,,2013-05-05 07:52:00,
2013-05-05 01:02:00,53.0,48.0,29.65,NE,42,1.0,11.0,82,0.00,,,0.00,,2013-05-05 08:02:00,
2013-05-05 01:11:00,53.0,48.0,29.65,NE,42,1.0,11.0,82,0.00,,,0.00,,2013-05-05 08:11:00,
2013-05-05 01:21:00,53.0,48.0,29.66,SSE,154,2.0,11.0,82,0.00,,,0.00,,2013-05-05 08:21:00,
2013-05-05 01:31:00,54.0,49.0,29.66,West,272,4.0,21.0,82,0.00,,,0.00,,2013-05-05 08:31:00,
2013-05-05 01:42:00,54.0,49.0,29.66,West,272,4.0,21.0,82,0.00,,,0.00,,2013-05-05 08:42:00,
2013-05-05 01:53:00,54.0,49.0,29.66,SW,215,4.0,18.0,82,0.00,,,0.00,,2013-05-05 08:53:00,
2013-05-05 02:01:00,54.0,48.0,29.66,West,271,6.0,12.0,81,0.00,,,0.00,,2013-05-05 09:01:00,
2013-05-05 02:11:00,54.0,48.0,29.66,West,271,6.0,12.0,81,0.00,,,0.00,,2013-05-05 09:11:00,
2013-05-05 02:21:00,54.0,48.0,29.66,East,98,4.0,19.0,81,0.00,,,0.00,,2013-05-05 09:21:00,
2013-05-05 02:32:00,54.0,48.0,29.66,South,184,4.0,19.0,81,0.00,,,0.00,,2013-05-05 09:32:00,
2013-05-05 02:42:00,54.0,48.0,29.66,South,184,4.0,19.0,81,0.00,,,0.00,,2013-05-05 09:42:00,
2013-05-05 02:52:00,54.0,48.0,29.65,WSW,246,4.0,21.0,81,0.00,,,0.00,,2013-05-05 09:52:00,
2013-05-05 03:02:00,54.0,48.0,29.65,WSW,243,5.0,20.0,81,0.00,,,0.00,,2013-05-05 10:02:00,
2013-05-05 03:12:00,54.0,48.0,29.65,WSW,243,5.0,20.0,81,0.00,,,0.00,,2013-05-05 10:12:00,
2013-05-05 03:22:00,54.0,49.0,29.66,East,83,5.0,12.0,82,0.00,,,0.00,,2013-05-05 10:22:00,
2013-05-05 03:32:00,54.0,49.0,29.66,West,280,0.0,6.0,82,0.00,,,0.00,,2013-05-05 10:32:00,
2013-05-05 03:42:00,54.0,49.0,29.66,West,280,0.0,6.0,82,0.00,,,0.00,,2013-05-05 10:42:00,
2013-05-05 03:52:00,54.0,49.0,29.66,NE,36,4.0,7.0,82,0.00,,,0.00,,2013-05-05 10:52:00,
2013-05-05 04:01:00,54.0,49.0,29.66,NNW,345,3.0,13.0,82,0.00,,,0.00,,2013-05-05 11:01:00,
2013-05-05 04:11:00,54.0,49.0,29.66,NNW,345,3.0,13.0,82,0.00,,,0.00,,2013-05-05 11:11:00,
2013-05-05 04:21:00,54.0,49.0,29.66,NE,46,3.0,16.0,82,0.00,,,0.00,,2013-05-05 11:21:00,
2013-05-05 04:32:00,54.0,49.0,29.65,North,349,3.0,18.0,82,0.00,,,0.00,,2013-05-05 11:32:00,
2013-05-05 04:42:00,54.0,49.0,29.65,North,349,3.0,18.0,82,0.00,,,0.00,,2013-05-05 11:42:00,
2013-05-05 04:52:00,54.0,49.0,29.65,NNE,24,6.0,21.0,82,0.00,,,0.00,,2013-05-05 11:52:00,
2013-05-05 05:01:00,54.0,49.0,29.65,NW,315,2.0,19.0,83,0.00,,,0.00,,2013-05-05 12:01:00,
2013-05-05 05:11:00,54.0,49.0,29.65,NW,315,2.0,19.0,83,0.00,,,0.00,,2013-05-05 12:11:00,
2013-05-05 05:21:00,54.0,49.0,29.66,WSW,242,5.0,11.0,82,0.00,,,0.00,,2013-05-05 12:21:00,
2013-05-05 05:31:00,54.0,49.0,29.66,NNW,345,4.0,12.0,82,0.00,,,0.00,,2013-05-05 12:31:00,
2013-05-05 05:42:00,54.0,49.0,29.66,NNW,345,4.0,12.0,82,0.00,,,0.00,,2013-05-05 12:42:00,
2013-05-05 05:52:00,54.0,49.0,29.67,NNE,16,8.0,13.0,82,0.00,,,0.00,,2013-05-05 12:52:00,
2013-05-05 06:01:00,54.0,49.0,29.67,West,266,7.0,16.0,82,0.00,,,0.00,,2013-05-05 13:01:00,
2013-05-05 06:11:00,54.0,49.0,29.67,West,266,7.0,16.0,82,0.00,,,0.00,,2013-05-05 13:11:00,
2013-05-05 06:21:00,54.0,49.0,29.67,ENE,73,3.0,9.0,82,0.00,,,0.00,,2013-05-05 13:21:00,
2013-05-05 06:32:00,54.0,49.0,29.66,NNE,12,3.0,13.0,82,0.00,,,0.00,,2013-05-05 13:32:00,
2013-05-05 06:42:00,54.0,49.0,29.66,NNE,12,3.0,13.0,82,0.00,,,0.00,,2013-05-05 13:42:00,
2013-05-05 06:52:00,54.0,49.0,29.67,NE,49,3.0,9.0,82,0.00,,,0.00,,2013-05-05 13:52:00,
2013-05-05 07:01:00,54.0,49.0,29.68,NW,325,10.0,20.0,82,0.00,,,0.00,,2013-05-05 14:01:00,
2013-05-05 07:11:00,54.0,49.0,29.68,NW,325,10.0,20.0,82,0.00,,,0.00,,2013-05-05 14:11:00,
2013-05-05 07:21:00,54.0,48.0,29.69,WNW,300,2.0,14.0,81,0.00,,,0.00,,2013-05-05 14:21:00,
2013-05-05 07:31:00,55.0,49.0,29.70,WSW,240,9.0,27.0,80,0.00,,,0.00,,2013-05-05 14:31:00,
2013-05-05 07:41:00,55.0,49.0,29.70,WSW,240,9.0,27.0,80,0.00,,,0.00,,2013-05-05 14:41:00,
2013-05-05 07:52:00,55.0,49.0,29.70,South,190,6.0,15.0,80,0.00,,,0.00,,2013-05-05 14:52:00,
2013-05-05 08:01:00,55.0,49.0,29.70,WSW,248,7.0,16.0,80,0.00,,,0.00,,2013-05-05 15:01:00,
2013-05-05 08:11:00,55.0,49.0,29.70,WSW,248,7.0,16.0,80,0.00,,,0.00,,2013-05-05 15:11:00,
2013-05-05 08:21:00,55.0,49.0,29.71,WSW,248,4.0,27.0,80,0.00,,,0.00,,2013-05-05 15:21:00,
2013-05-05 08:32:00,55.0,49.0,29.70,WNW,282,9.0,23.0,80,0.00,,,0.00,,2013-05-05 15:32:00,
2013-05-05 08:42:00,55.0,49.0,29.70,WNW,282,9.0,23.0,80,0.00,,,0.00,,2013-05-05 15:42:00,
2013-05-05 08:53:00,55.0,49.0,29.71,SSW,204,9.0,22.0,79,0.00,,,0.00,,2013-05-05 15:53:00,
2013-05-05 09:02:00,55.0,49.0,29.72,West,274,5.0,20.0,79,0.00,,,0.00,,2013-05-05 16:02:00,
2013-05-05 09:12:00,55.0,49.0,29.72,West,274,5.0,20.0,79,0.00,,,0.00,,2013-05-05 16:12:00,
2013-05-05 09:22:00,55.0,49.0,29.71,East,81,2.0,16.0,79,0.00,,,0.00,,2013-05-05 16:22:00,
2013-05-05 09:32:00,56.0,49.0,29.72,North,360,4.0,9.0,77,0.00,,,0.00,,2013-05-05 16:32:00,
2013-05-05 09:42:00,56.0,49.0,29.72,North,360,4.0,9.0,77,0.00,,,0.00,,2013-05-05 16:42:00,
2013-05-05 09:52:00,56.0,49.0,29.72,South,175,6.0,12.0,77,0.00,,,0.00,,2013-05-05 16:52:00,
2013-05-05 10:01:00,56.0,49.0,29.72,WSW,253,5.0,13.0,77,0.00,,,0.00,,2013-05-05 17:01:00,
2013-05-05 10:12:00,56.0,49.0,29.72,WSW,253,5.0,13.0,77,0.00,,,0.00,,2013-05-05 17:12:00,
2013-05-05 10:23:00,56.0,49.0,29.73,SE,132,4.0,15.0,78,0.00,,,0.00,,2013-05-05 17:23:00,
2013-05-05 10:31:00,56.0,49.0,29.74,WNW,294,2.0,12.0,78,0.00,,,0.00,,2013-05-05 17:31:00,
2013-05-05 10:41:00,56.0,49.0,29.74,WNW,294,2.0,12.0,78,0.00,,,0.00,,2013-05-05 17:41:00,
2013-05-05 10:52:00,56.0,49.0,29.75,NNE,30,6.0,22.0,78,0.00,,,0.00,,2013-05-05 17:52:00,
2013-05-05 11:01:00,56.0,49.0,29.75,SE,142,2.0,19.0,77,0.00,,,0.00,,2013-05-05 18:01:00,
2013-05-05 11:11:00,56.0,49.0,29.75,SE,142,2.0,19.0,77,0.00,,,0.00,,2013-05-05 18:11:00,
2013-05-05 11:21:00,56.0,49.0,29.77,NW,320,6.0,16.0,76,0.00,,,0.00,,2013-05-05 18:21:00,
2013-05-05 11:31:00,57.0,50.0,29.77,East,86,5.0,10.0,77,0.00,,,0.00,,2013-05-05 18:31:00,
2013-05-05 11:41:00,57.0,50.0,29.77,East,86,5.0,10.0,77,0.00,,,0.00,,2013-05-05 18:41:00,
2013-05-05 11:52:00,56.0,49.0,29.77,NE,39,3.0,18.0,77,0.00,,,0.00,,2013-05-05 18:52:00,
2013-05-05 12:01:00,56.0,49.0,29.76,ESE,105,4.0,8.0,78,0.00,,,0.00,,2013-05-05 19:01:00,
2013-05-05 12:11:00,56.0,49.0,29.76,ESE,105,4.0,8.0,78,0.00,,,0.00,,2013-05-05 19:11:00,
2013-05-05 12:21:00,56.0,50.0,29.77,ENE,58,6.0,14.0,79,0.00,,,0.00,,2013-05-05 19:21:00,
2013-05-05 12:32:00,55.0,49.0,29.76,SSW,194,6.0,15.0,81,0.00,,,0.00,,2013-05-05 19:32:00,
2013-05-05 12:41:00,55.0,49.0,29.76,SSW,194,6.0,15.0,81,0.00,,,0.00,,2013-05-05 19:41:00,
2013-05-05 12:52:00,56.0,50.0,29.76,SSW,208,5.0,16.0,80,0.00,,,0.00,,2013-05-05 19:52:00,
2013-05-05 13:01:00,57.0,50.0,29.76,SSW,192,7.0,23.0,77,0.00,,,0.00,,2013-05-05 20:01:00,
2013-05-05 13:11:00,57.0,50.0,29.76,SSW,192,7.0,23.0,77,0.00,,,0.00,,2013-05-05 20:11:00,
2013-05-05 13:21:00,57.0,50.0,29.75,WSW,238,10.0,20.0,77,0.00,,,0.00,,2013-05-05 20:21:00,
2013-05-05 13:31:00,58.0,50.0,29.74,West,276,4.0,21.0,76,0.00,,,0.00,,2013-05-05 20:31:00,
2013-05-05 13:41:00,58.0,50.0,29.74,West,276,4.0,21.0,76,0.00,,,0.00,,2013-05-05 20:41:00,
2013-05-05 13:52:00,59.0,51.0,29.76,SSE,148,6.0,23.0,75,0.00,,,0.00,,2013-05-05 20:52:00,
2013-05-05 14:01:00,58.0,50.0,29.76,SW,235,8.0,19.0,75,0.00,,,0.00,,2013-05-05 21:01:00,
2013-05-05 14:11:00,58.0,50.0,29.76,SW,235,8.0,19.0,75,0.00,,,0.00,,2013-05-05 21:11:00,
2013-05-05 14:21:00,58.0,50.0,29.75,WSW,253,4.0,16.0,74,0.00,,,0.00,,2013-05-05 21:21:00,
2013-05-05 14:32:00,58.0,49.0,29.76,WSW,249,12.0,23.0,72,0.00,,,0.00,,2013-05-05 21:32:00,
2013-05-05 14:42:00,58.0,49.0,29.76,WSW,249,12.0,23.0,72,0.00,,,0.00,,2013-05-05 21:42:00,
2013-05-05 14:53:00,57.0,49.0,29.76,South,188,9.0,28.0,75,0.00,,,0.00,,2013-05-05 21:53:00,
2013-05-05 15:02:00,58.0,49.0,29.75,WSW,244,6.0,19.0,73,0.00,,,0.00,,2013-05-05 22:02:00,
2013-05-05 15:12:00,58.0,49.0,29.75,WSW,244,6.0,19.0,73,0.00,,,0.00,,2013-05-05 22:12:00,
2013-05-05 15:22:00,58.0,49.0,29.75,SW,231,6.0,19.0,72,0.00,,,0.00,,2013-05-05 22:22:00,
2013-05-05 15:33:00,58.0,49.0,29.75,WSW,244,5.0,19.0,73,0.00,,,0.00,,2013-05-05 22:33:00,
2013-05-05 15:41:00,58.0,49.0,29.75,WSW,244,5.0,19.0,73,0.00,,,0.00,,2013-05-05 22:41:00,
2013-05-05 15:52:00,58.0,49.0,29.76,ESE,105,7.0,26.0,73,0.00,,,0.00,,2013-05-05 22:52:00,
2013-05-05 16:02:00,57.0,49.0,29.76,West,261,9.0,21.0,74,0.00,,,0.00,,2013-05-05 23:02:00,
2013-05-05 16:11:00,57.0,49.0,29.76,West,261,9.0,21.0,74,0.00,,,0.00,,2013-05-05 23:11:00,
2013-05-05 16:21:00,57.0,50.0,29.76,ESE,122,9.0,23.0,76,0.00,,,0.00,,2013-05-05 23:21:00,
2013-05-05 16:31:00,56.0,49.0,29.76,SSW,208,6.0,15.0,76,0.00,,,0.00,,2013-05-05 23:31:00,
2013-05-05 16:41:00,56.0,49.0,29.76,SSW,208,6.0,15.0,76,0.00,,,0.00,,2013-05-05 23:41:00,
2013-05-05 16:52:00,57.0,49.0,29.76,West,274,10.0,15.0,75,0.00,,,0.00,,2013-05-05 23:52:00,
2013-05-05 17:01:00,57.0,49.0,29.76,SSE,163,4.0,22.0,74,0.00,,,0.00,,2013-05-06 00:01:00,
2013-05-05 17:11:00,57.0,49.0,29.76,SSE,163,4.0,22.0,74,0.00,,,0.00,,2013-05-06 00:11:00,
2013-05-05 17:21:00,58.0,49.0,29.76,West,268,8.0,14.0,73,0.00,,,0.00,,2013-05-06 00:21:00,
2013-05-05 17:31:00,58.0,49.0,29.76,SE,133,2.0,18.0,73,0.00,,,0.00,,2013-05-06 00:31:00,
2013-05-05 17:41:00,58.0,49.0,29.76,SE,133,2.0,18.0,73,0.00,,,0.00,,2013-05-06 00:41:00,
2013-05-05 17:51:00,58.0,49.0,29.77,WNW,283,5.0,15.0,73,0.00,,,0.00,,2013-05-06 00:51:00,
2013-05-05 18:01:00,58.0,49.0,29.77,West,262,4.0,15.0,73,0.00,,,0.00,,2013-05-06 01:01:00,
2013-05-05 18:11:00,58.0,49.0,29.77,West,262,4.0,15.0,73,0.00,,,0.00,,2013-05-06 01:11:00,
2013-05-05 18:21:00,58.0,49.0,29.77,SW,220,5.0,10.0,72,0.00,,,0.00,,2013-05-06 01:21:00,
2013-05-05 18:31:00,58.0,49.0,29.77,SW,223,3.0,11.0,73,0.00,,,0.00,,2013-05-06 01:31:00,
2013-05-05 18:41:00,58.0,49.0,29.77,SW,223,3.0,11.0,73,0.00,,,0.00,,2013-05-06 01:41:00,
2013-05-05 18:52:00,58.0,50.0,29.78,WSW,238,3.0,15.0,74,0.00,,,0.00,,2013-05-06 01:52:00,
2013-05-05 19:01:00,57.0,49.0,29.78,SSW,207,5.0,9.0,75,0.00,,,0.00,,2013-05-06 02:01:00,
2013-05-05 19:11:00,57.0,49.0,29.78,SSW,207,5.0,9.0,75,0.00,,,0.00,,2013-05-06 02:11:00,
2013-05-05 19:21:00,57.0,49.0,29.78,SW,221,5.0,10.0,75,0.00,,,0.00,,2013-05-06 02:21:00,
2013-05-05 19:31:00,57.0,50.0,29.78,West,259,4.0,11.0,76,0.00,,,0.00,,2013-05-06 02:31:00,
2013-05-05 19:42:00,57.0,50.0,29.78,West,259,4.0,11.0,76,0.00,,,0.00,,2013-05-06 02:42:00,
2013-05-05 19:51:00,57.0,50.0,29.79,SE,136,4.0,8.0,77,0.00,,,0.00,,2013-05-06 02:51:00,
2013-05-05 20:01:00,57.0,50.0,29.79,SW,221,6.0,13.0,78,0.00,,,0.00,,2013-05-06 03:01:00,
2013-05-05 20:11:00,57.0,50.0,29.79,SW,221,6.0,13.0,78,0.00,,,0.00,,2013-05-06 03:11:00,
2013-05-05 20:22:00,56.0,50.0,29.79,SW,229,4.0,10.0,79,0.00,,,0.00,,2013-05-06 03:22:00,
2013-05-05 20:32:00,56.0,50.0,29.80,SE,144,2.0,12.0,79,0.00,,,0.00,,2013-05-06 03:32:00,
2013-05-05 20:42:00,56.0,50.0,29.80,SE,144,2.0,12.0,79,0.00,,,0.00,,2013-05-06 03:42:00,
2013-05-05 20:52:00,56.0,50.0,29.80,South,188,6.0,13.0,79,0.00,,,0.00,,2013-05-06 03:52:00,
2013-05-05 21:02:00,56.0,50.0,29.80,South,169,6.0,12.0,80,0.00,,,0.00,,2013-05-06 04:02:00,
2013-05-05 21:12:00,56.0,50.0,29.80,South,169,6.0,12.0,80,0.00,,,0.00,,2013-05-06 04:12:00,
2013-05-05 21:23:00,56.0,50.0,29.81,SW,221,3.0,12.0,80,0.00,,,0.00,,2013-05-06 04:23:00,
2013-05-05 21:32:00,56.0,50.0,29.81,SSE,164,6.0,14.0,79,0.00,,,0.00,,2013-05-06 04:32:00,
2013-05-05 21:42:00,56.0,50.0,29.81,SSE,164,6.0,14.0,79,0.00,,,0.00,,2013-05-06 04:42:00,
2013-05-05 21:52:00,57.0,51.0,29.82,SSW,207,7.0,14.0,79,0.00,,,0.00,,2013-05-06 04:52:00,
2013-05-05 22:02:00,56.0,50.0,29.82,South,174,6.0,16.0,80,0.00,,,0.00,,2013-05-06 05:02:00,
2013-05-05 22:12:00,56.0,50.0,29.82,South,174,6.0,16.0,80,0.00,,,0.00,,2013-05-06 05:12:00,
2013-05-05 22:22:00,56.0,50.0,29.82,SSW,202,6.0,14.0,80,0.00,,,0.00,,2013-05-06 05:22:00,
2013-05-05 22:31:00,56.0,50.0,29.83,SSW,205,5.0,12.0,80,0.00,,,0.00,,2013-05-06 05:31:00,
2013-05-05 22:42:00,56.0,50.0,29.83,SSW,205,5.0,12.0,80,0.00,,,0.00,,2013-05-06 05:42:00,
2013-05-05 22:52:00,56.0,50.0,29.83,SSW,205,4.0,11.0,79,0.00,,,0.00,,2013-05-06 05:52:00,
2013-05-05 23:02:00,56.0,50.0,29.83,SSW,196,5.0,14.0,79,0.00,,,0.00,,2013-05-06 06:02:00,
2013-05-05 23:12:00,56.0,50.0,29.83,SSW,196,5.0,14.0,79,0.00,,,0.00,,2013-05-06 06:12:00,
2013-05-05 23:21:00,56.0,50.0,29.83,WNW,285,5.0,9.0,79,0.00,,,0.00,,2013-05-06 06:21:00,
2013-05-05 23:31:00,56.0,50.0,29.84,West,259,6.0,12.0,80,0.00,,,0.00,,2013-05-06 06:31:00,
2013-05-05 23:41:00,56.0,50.0,29.84,West,259,6.0,12.0,80,0.00,,,0.00,,2013-05-06 06:41:00,
2013-05-05 23:52:00,56.0,50.0,29.84,SSW,198,2.0,14.0,80,0.00,,,0.00,,2013-05-06 06:52:00,